{"data":{"norad_id":64945,"epoch":"2026-09-20T14:23:15.832320Z","epoch_age_seconds":115595,"freshness":"FRESH","line1":"1 64945U 25158P   26263.59948880  .00011772  00000+0  36620-3 0  9996","line2":"2 64945  97.2818 121.9422 0002371 112.8352 247.3141 15.33460821 64725","mean_motion":15.33460821,"eccentricity":0.0002371,"inclination_deg":97.2818,"raan_deg":121.9422,"arg_perigee_deg":112.8352,"mean_anomaly_deg":247.3141,"bstar":0.0003662,"rev_number":6472,"period_min":93.905235809086,"perigee_km":463.87347730921,"apogee_km":467.11872812652,"semimajor_km":6843.6331027179,"source":"CELESTRAK","updated_at":"2026-09-21T09:00:35.488702Z"}}